Regional Weather Roundup
Issued by NWS Wakefield, VA

Home | Current Version | Previous Version | Text Only | Print | Product List | Glossary On
Versions: 1 2 3 4 5 6 7 8 9 10 11 12 13 14 15 16 17 18 19 20 21 22 23 24 25 26 27 28 29 30 31 32 33 34 35 36 37 38 39 40 41 42 43 44 45 46 47 48 49 50
000
ASUS41 KAKQ 020710
RWRAKQ

REGIONAL WEATHER ROUNDUP
NATIONAL WEATHER SERVICE WAKEFIELD VA
300 AM EDT SAT AUG 02 2014

Note: "fair" indicates few or no clouds below 12,000 feet with no
significant weather and/or obstructions to visibility. * = Denotes
station may not report precipitation (e.g., rain,snow,etc.),
thunder or fog.

VAZ042-051-052>054-056-020800-
NORTHERN VIRGINIA

CITY           SKY/WX    TMP DP  RH WIND       PRES   REMARKS
WASH NATIONAL  LGT RAIN  68  61  78 N7        30.14F
DULLES         CLOUDY    65  60  84 N5        30.14F
FORT BELVOIR   NOT AVBL
QUANTICO       LGT RAIN  65  62  90 N6        30.13F
FREDERICKSBRG* CLOUDY    65  65 100 CALM      30.12F
STAFFORD*      CLOUDY    63  63 100 N5        30.17F
WARRENTON      CLOUDY    65  65 100 CALM      30.14F
CULPEPER*      CLOUDY   N/A N/A N/A CALM      30.14F
MANASSAS*      CLOUDY    64  64 100 CALM      30.14F
LEESBURG*      CLOUDY    64  63  94 CALM      30.16F
WINCHESTER     PTCLDY    63  59  88 CALM      30.16F
$$

VAZ048-049-060>072-079>083-020800-
CENTRAL AND SOUTH CENTRAL VIRGINIA...AND NORTH CENTRAL NORTH CAROLINA

CITY           SKY/WX    TMP DP  RH WIND       PRES   REMARKS
RICHMOND       CLOUDY    66  64  93 N8        30.10S
CHESTERFIELD*  CLOUDY   N/A N/A N/A N5        30.10F
HANOVER        CLOUDY    65  64  97 NW5       30.12F FOG
TAPPAHANNOCK*  CLOUDY    67  64  90 NW3       30.10F
CHARLOTTSVILLE CLOUDY    64  61  90 CALM      30.14F
ORANGE*        LGT RAIN  63  61  94 NW3       30.15F
LOUISA*        CLOUDY    64  63  94 NW3       30.13S FOG
FARMVILLE*     CLOUDY    64  63  94 N3        30.10F FOG
SOUTH HILL*    CLOUDY    64  64 100 N3        30.15F
ROANOKE RAPIDS CLOUDY    63  63 100 N5        30.08F
RALEIGH        DRIZZLE   65  63  93 VRB3      30.10F FOG
$$

VAZ088>098-020800-
SOUTHEAST VIRGINIA

CITY           SKY/WX    TMP DP  RH WIND       PRES   REMARKS
NORFOLK        HVY RAIN  72  69  90 SW7       30.05S FOG
VIRGINIA BEACH TSTM      75  72  90 S8        30.02F
NORFOLK NAVAL  TSTM      72  70  93 W5        30.06S FOG
WEST POINT*    CLOUDY    68  66  92 NE3       30.10F
NEWPORT NEWS   LGT RAIN  72  68  87 NW6       30.06S
LANGLEY AFB    DRIZZLE   70  70 100 NW3       30.05S FOG
FORT EUSTIS    CLOUDY    68 N/A N/A VRB5      30.05S
WILLIAMSBURG*  CLOUDY    70  68  94 N5        30.08F
FRANKLIN*      CLOUDY    64 N/A N/A CALM      30.07S
WAKEFIELD      LGT RAIN  66  63  90 N6        30.08F
$$

VAZ020-022-025-037-045-020800-
WESTERN AND SOUTHWEST VIRGINIA

CITY           SKY/WX    TMP DP  RH WIND       PRES   REMARKS
STAUNTON*      CLOUDY    64  59  84 CALM      30.18F
HOT SPRINGS VA LGT RAIN  56  54  95 E3        30.23F VSB<1/4
LYNCHBURG      CLOUDY    62  61  96 N5        30.15S
DANVILLE       CLOUDY    65  61  87 N3        30.13F
MARTINSVILLE   RAIN      63  62  99 NE3       30.17F
ROANOKE        CLOUDY    62  61  96 W3        30.17S
BLACKSBURG     CLOUDY    61  61 100 E6        30.19F
DUBLIN*        CLOUDY    63  63 100 CALM      30.18F
MARION*        CLOUDY    62  60  94 E3        30.21S FOG
HILLSVILLE*    FOG       60  60 100 CALM      30.18F VSB 1/4
RICHLANDS*     MOSUNNY   64  60  86 SE5       30.16F
WISE*          MOCLDY    63  55  77 S7        30.16F
ABINGDON*      PTCLDY    63  59  86 E7        30.15F
$$

MDZ021>025-VAZ099-100-020800-
SOUTHERN MARYLAND AND THE DELMARVA PENINSULA

CITY           SKY/WX    TMP DP  RH WIND       PRES   REMARKS
PATUXENT RIVER RAIN      66  64  93 NE8       30.09F FOG
BAY BRIDGE APT LGT RAIN  66  64  94 CALM      30.13F
LEONARDTOWN    CLOUDY    64  63  94 NE3       30.11F
DOVER          RAIN      66  66 100 E3        30.11F FOG
GEORGETOWN     RAIN      65  63  93 E10       30.13F FOG
EASTON         LGT RAIN  65  65 100 CALM      30.17S
CAMBRIDGE      CLOUDY    63  61  94 CALM      30.12F
SALISBURY      RAIN      67  64  90 N7        30.11S FOG
OCEAN CITY     RAIN      65  64  97 N9        30.10R FOG
WALLOPS ISLAND LGT RAIN  66  65  96 N10       30.08F
ACCOMACK*      LGT RAIN  64  63  94 NE5       30.06F
$$

NCZ012>017-030>032-020800-
EASTERN NORTH CAROLINA

CITY           SKY/WX    TMP DP  RH WIND       PRES   REMARKS
ELIZABETH CITY PTCLDY    74  72  93 S7        30.05F
AHOSKIE*       CLOUDY    65  64  94 CALM      30.07F
EDENTON*       MOCLDY    75  73  96 SW7       30.05F
CURRITUCK*     MOCLDY    74  71  89 S3        30.05F
KILL DEVIL HLS PTCLDY    74  72  91 S5        30.06F
MANTEO         NOT AVBL
CAPE HATTERAS  LGT RAIN  74  74 100 S15G23    30.09S
GOLDSBORO      CLOUDY    68  68  99 N6        30.05F FOG
WASHINGTON     CLOUDY    72  72  98 CALM      30.06F
GREENVILLE     CLOUDY    68  68 100 CALM      30.08S FOG
NEW BERN       PTCLDY    74  71  91 SE3       30.07R
WILMINGTON     MOCLDY    77  74  90 CALM      30.03F
$$

VAZ048-020800-
ELSEWHERE

CITY           SKY/WX    TMP DP  RH WIND       PRES   REMARKS
HARRISBURG PA  CLOUDY    69  63  81 E5        30.15F
BALTIMORE      LGT RAIN  65  64  97 NW6       30.14F FOG
ANNAPOLIS      LGT RAIN  67  64  90 N3        30.13S FOG
ANDREWS AFB    RAIN      65  64  97 N6        30.13F
WILMINGTON DE  RAIN      68  66  93 NE3       30.16F
PHILADELPHIA   LGT RAIN  71  66  84 SW3       30.16F
WILDWOOD NJ*   CLOUDY    66  63  88 CALM      30.15F
ATLANTIC CITY  LGT RAIN  68  66  93 S6        30.14F FOG
HENDERSON NC   CLOUDY    63  62  96 N3        30.11S FOG
GREENSBORO     CLOUDY    62  62 100 NE6       30.12F FOG
ROCKY MOUNT    CLOUDY    66  65  96 N7        30.06F FOG
FAYETTEVILLE   CLOUDY    68  67  96 N9        30.05F FOG
CHARLOTTE      CLOUDY    66  63  90 NE6       30.11R
$$

VAZ100-020800-
MARINE

STATION/POSITION TIME  TEMP    WIND        PRES    WAVE   SWELL
                       AIR SEA DIR/SP/G            HT/PER HT/PER
                 (UTC) (F)     (DEG/KT/KT) (MB)    (FT/S) (FT/S)
44066 TX TWR #4  0700   75 74  110/  8/ 10 1020.4F   3/ 7   3/ 7
CAPE MAY NJ      0700   66 75  120/  3/  4 1020.1F
LEWES DE         0700   66 72  160/  4/  6 1020.0F
15NM E FENWICK I 0700   71 75              1018.6F   3/ 7
OCEAN-CITY-INLET 0700   66 71  340/ 12/ 15 1019.3R
WACHAPREAGUE VA  0700   65 76  360/  5/  9 1017.6F
THOMAS POINT MD  0700   69 77   70/ 13/ 15 1020.6F
GOOSES REEF MD   0700   67     120/ 10/ 14 1020.6S
COVE POINT MD    0700   65     100/ 10/ 13 1019.6F
SOLOMONS ISLAND  0700      79                N/A
BISHOPS HEAD MD  0700   66 74   50/  9/ 13 1018.8R
PINEY POINT MD   0700           80/  7/  8   N/A
POTOMAC MD       0700   69      60/ 12/ 16 1018.1F
CAMBRIDGE MD     0700   66 78   60/ 12/ 14 1019.4F
LEWISETTA VA     0700   68 76   50/  9/ 14 1018.5F
RAPPAHANNOCK LGT 0700           30/ 19/ 21 1017.8F
STINGRAY PT      0700   70      50/ 17/ 21 1018.3F
YORK RVR RNG VA  0700   71      40/ 11/ 12 1016.9S
YORKTOWN VA      0700   70 78  320/  5/  8 1017.5F
JAMESTOWN VA     0700   66     350/  8/ 10   N/A
DOMINION TERM VA 0700   72     290/  9/  9 1017.6R
KIPTOPEKE VA     0700      79  170/ 14/ 18   N/A
CHES BAY BRIDGE  0700   74 75  220/ 11/ 18 1016.6S
CAPE HENRY VA    0700   75     180/  8/ 12 1016.0R
WILLOUBY STN VA  0700          240/  9/ 10 1016.7S
S CRANEY ISL VA  0700          190/  4/  7 1017.8R
CAPE HENRY BUOY  0700      77                N/A     5/ 5
1ST LANDING BUOY 0700   76     180/ 14/ 17 1016.8R
CAPE CHARLES BUO 0700      75                N/A     5/ 6
OFFSHORE WE BUOY 0700      77                N/A     5/ 5
64NM E OF VA BCH 0700   78 77  160/ 16/ 17 1017.7F   4/ 5   2/ 8
DUCK PIER NC     0700   75 66  160/ 15/ 17 1016.9F
44056 DUCK FRF   0700                        N/A     3/ 5
OREGON INLET NC  0700   76 76  160/  6/  9 1018.4R
HATTERAS NC      0700   75 79  170/ 12/ 19 1019.1S
DIAMOND SHLS NC  0700          VRB 14/ 17  1018.5F   4/ 6   2/ 9
CAPE LOOKOUT NC  0600   78     180/ 16/ 18 1018.1F
$$



USA.gov is the U.S. government's official web portal to all federal, state and local government web resources and services.